Theta_e
304 304 305 306 308 309 308 307 307 308 309 310 311 313 315 316 316 317 318 318 318 318 318 319 319 319 319 318 318 317 316 313 313 313 312 310 308 307 308 308 308 308 309 308 308 307 307 308 308 309 312 311 310 312 313 313 314 316 316 317 317 317 318 317 318 317 315 316 314 308 307 309 311 308 306 306 306 308 308 307 308 308 307 307 309 307 304 305
303 303 303 305 308 309 308 306 305 306 308 309 310 311 314 316 317 318 318 317 318 319 318 319 319 319 319 318 317 316 313 311 313 313 311 310 310 309 308 307 308 308 308 308 308 307 308 309 308 309 311 311 310 311 314 313 313 316 317 317 316 317 317 315 316 316 315 316 314 309 306 307 310 309 307 309 312 310 309 310 309 308 309 309 309 307 306 305
302 302 302 304 307 309 309 307 305 305 307 308 310 310 312 316 318 318 318 318 319 319 319 319 318 318 317 314 312 310 311 313 315 313 310 310 311 310 309 308 309 308 308 308 307 307 307 308 308 309 310 311 310 311 313 313 312 315 316 316 316 317 316 314 314 315 315 314 314 312 306 305 308 308 307 310 313 313 312 313 312 311 312 312 311 311 310 308
302 301 301 301 305 309 310 308 307 306 307 309 309 309 310 314 318 319 318 319 320 319 320 319 319 318 314 310 308 309 311 316 317 312 310 309 310 310 309 309 309 308 308 307 307 307 306 307 308 308 309 310 310 310 313 313 313 314 314 316 316 314 315 315 314 314 313 310 312 311 306 307 308 305 306 309 312 314 314 314 314 314 314 314 314 314 313 310
302 301 300 300 302 306 310 309 307 307 308 310 309 308 308 313 318 320 319 319 319 318 319 319 320 317 311 309 309 310 314 319 315 310 311 310 309 309 309 309 309 308 308 307 307 306 306 307 308 308 309 310 310 311 313 312 311 313 314 315 315 312 315 315 314 313 310 306 308 309 308 310 307 305 307 309 312 315 316 315 313 314 314 315 314 312 310 309
302 301 300 300 299 302 307 309 308 307 309 310 310 308 307 311 317 319 319 319 318 317 318 319 319 315 309 308 310 311 315 320 314 311 312 311 310 309 309 308 308 309 308 307 306 306 307 307 308 309 309 310 311 311 312 310 309 313 314 313 312 311 314 314 310 310 307 306 308 308 308 308 307 309 309 308 311 313 314 314 312 313 313 312 310 308 307 308
302 301 300 300 299 300 303 308 309 307 309 311 311 309 307 311 316 318 318 317 317 316 318 319 317 311 307 309 312 312 315 318 313 311 311 311 310 309 309 308 308 309 307 307 307 308 307 307 308 309 310 310 311 311 310 308 307 311 313 312 310 309 312 312 307 307 305 306 308 306 305 306 309 310 308 307 309 310 311 311 311 311 311 309 307 307 307 308
304 302 301 300 300 300 301 304 306 306 309 312 313 311 308 310 313 314 315 316 314 314 317 317 313 308 307 310 314 315 319 317 311 310 310 310 310 308 309 309 308 309 307 307 308 310 308 307 309 309 310 311 310 310 308 308 309 310 313 312 308 306 309 309 305 306 305 305 305 303 305 308 309 308 306 307 309 309 310 310 309 309 309 307 306 306 307 307
306 305 303 302 301 300 300 301 302 304 307 311 313 312 309 309 308 307 310 313 308 307 313 312 308 306 307 311 314 318 321 316 310 310 310 309 310 309 309 309 309 309 308 308 308 309 309 309 309 309 310 310 310 310 307 309 311 311 312 310 308 308 308 306 305 306 305 304 304 304 307 308 307 307 307 309 310 309 309 309 309 308 307 307 306 306 306 306
305 305 305 304 303 302 301 300 301 302 304 307 309 310 309 307 307 305 307 308 303 302 307 308 305 305 307 311 315 319 319 313 311 311 310 310 310 309 309 309 309 308 308 308 306 308 310 310 310 310 311 309 309 308 307 309 309 309 309 308 308 308 306 304 305 305 303 303 304 305 309 309 306 306 309 311 308 306 307 307 306 304 305 306 306 305 305 305
305 306 306 305 304 303 302 301 301 302 302 304 305 307 307 305 304 305 304 303 301 301 304 306 306 307 308 309 314 320 316 311 311 310 310 311 310 310 309 309 309 308 308 307 306 307 308 309 310 311 311 309 309 307 306 307 306 305 305 306 307 306 304 304 304 304 303 304 304 304 307 308 307 306 308 310 306 305 307 307 307 305 306 306 306 307 306 306
306 307 307 306 305 303 302 302 301 302 302 303 304 305 304 303 303 305 305 303 301 301 304 305 306 307 309 309 311 315 311 309 310 310 310 310 311 310 310 311 310 308 308 307 307 307 307 307 309 312 311 309 308 307 306 303 302 302 303 307 308 306 306 304 302 302 302 304 303 302 305 308 309 306 308 310 307 306 307 307 307 308 307 308 307 307 306 306
306 306 306 306 305 303 302 302 302 302 303 303 304 304 303 302 302 303 305 304 301 302 305 306 306 307 311 313 311 309 309 309 310 310 311 310 311 311 310 311 309 307 308 308 307 307 307 307 309 313 311 310 308 305 305 301 301 303 303 306 307 308 308 303 301 301 302 303 302 302 306 310 311 309 309 309 306 304 305 306 307 307 307 307 306 305 305 305
306 306 306 306 305 304 303 302 302 302 303 303 303 302 302 301 301 301 302 302 301 303 305 307 310 311 312 314 309 307 309 309 310 311 311 310 310 310 310 310 308 308 309 308 308 308 309 306 308 311 309 309 307 304 304 303 303 306 304 304 307 308 308 304 301 302 303 303 302 303 306 309 310 310 309 307 304 303 305 307 307 308 307 307 307 307 306 307
306 306 305 305 305 305 303 301 301 302 302 302 302 302 302 301 300 300 301 301 301 304 307 309 313 312 310 312 310 309 310 310 311 311 310 311 310 311 310 309 308 309 310 309 309 308 307 306 309 310 307 306 306 306 308 307 305 306 307 308 308 307 308 306 302 301 305 304 302 304 307 309 310 310 308 305 304 304 304 307 307 308 308 308 308 308 308 308
305 305 305 305 305 305 304 301 300 301 301 302 303 302 301 300 301 301 301 302 305 308 310 312 314 312 311 311 310 311 311 311 311 310 310 310 310 311 309 308 308 308 309 309 308 306 305 308 309 308 307 306 308 309 310 309 308 307 307 310 310 307 308 307 303 301 303 305 304 305 307 308 309 310 308 306 306 305 306 307 308 308 308 308 308 308 308 308
305 305 305 305 304 305 304 303 301 300 301 302 302 302 301 301 301 302 304 306 310 313 312 312 312 312 311 309 309 311 312 310 310 309 310 310 310 310 308 309 310 308 307 307 306 307 308 309 308 306 308 307 308 310 309 310 310 308 307 308 308 307 306 306 306 303 302 304 306 306 306 307 308 309 309 308 308 308 308 308 308 309 309 309 309 309 309 309
304 304 305 305 304 304 305 304 303 301 301 301 301 300 300 301 302 305 308 311 312 311 311 311 310 312 313 310 311 312 311 311 310 309 309 310 310 308 307 309 309 308 309 308 307 309 310 309 308 308 308 307 307 309 309 310 310 309 308 308 308 306 305 307 307 305 303 305 306 307 307 307 308 309 309 309 309 308 308 308 309 309 309 309 309 309 309 309
304 304 304 304 304 304 304 304 303 301 301 300 300 302 303 306 307 308 312 312 313 311 311 311 309 312 315 313 312 311 311 310 309 309 309 310 309 307 306 307 309 310 309 309 309 309 309 309 309 309 309 308 308 309 309 310 309 309 309 308 309 308 306 307 307 304 303 306 307 307 308 308 309 310 310 310 309 309 309 309 310 311 310 310 310 310 310 310
304 304 304 304 304 304 304 304 303 301 301 300 304 306 306 309 309 311 313 312 313 312 312 314 312 313 314 313 312 311 312 311 309 309 308 309 309 308 307 308 311 311 308 311 310 307 307 308 310 311 311 310 309 310 310 308 308 308 309 308 308 308 307 307 307 304 303 307 309 309 309 309 309 310 311 311 311 311 311 311 312 312 312 312 311 311 311 311
304 304 304 304 304 304 304 304 304 302 301 301 306 308 307 309 307 309 313 313 314 312 312 314 312 312 311 311 311 310 312 311 309 309 308 308 308 308 310 310 309 306 309 314 311 306 307 308 311 312 311 309 309 310 309 308 308 307 307 308 308 308 308 307 306 304 303 306 309 309 308 310 311 311 312 312 312 312 312 312 312 312 312 312 312 312 312 312
303 303 303 303 303 304 304 304 305 304 302 302 307 309 309 310 308 307 308 310 313 310 310 312 310 312 310 308 309 309 311 313 311 311 308 308 308 308 311 311 309 307 309 310 309 308 308 308 312 308 305 307 307 306 307 307 308 308 308 308 308 308 308 307 306 304 305 307 310 310 309 310 312 312 313 313 311 312 312 311 312 311 312 312 312 312 312 312
303 303 303 303 303 304 304 305 306 305 303 303 306 308 308 310 308 307 307 308 311 309 310 312 311 314 312 309 310 310 311 313 312 312 309 308 309 309 311 311 311 311 310 308 308 309 309 311 310 302 303 309 309 306 306 307 307 308 308 308 308 309 308 307 307 305 305 307 308 309 309 312 313 313 313 312 312 314 312 310 310 310 310 312 312 312 311 311
303 303 302 302 303 304 303 304 306 304 302 302 303 304 307 309 307 307 308 309 310 309 309 310 310 313 313 310 309 310 312 312 311 312 309 309 310 309 310 312 311 311 310 310 310 309 310 311 303 301 306 310 311 309 308 307 308 310 310 308 309 309 307 308 308 306 307 307 306 309 311 312 314 314 313 313 314 315 313 310 311 311 311 310 310 311 311 310
303 303 302 302 303 303 303 305 306 304 303 302 302 303 306 308 306 306 307 309 310 308 307 308 309 311 310 308 308 309 312 313 311 310 307 309 311 309 309 309 308 310 313 312 310 308 311 306 301 307 308 309 311 311 310 311 309 310 311 310 310 308 307 308 309 309 311 311 308 309 310 311 314 314 314 314 314 313 313 312 311 312 311 311 311 314 314 313
302 302 302 303 303 303 304 306 306 303 304 305 303 303 304 306 307 306 306 308 309 309 309 310 310 309 309 308 308 309 312 312 308 306 307 308 310 310 310 309 307 310 314 311 308 309 309 303 302 309 310 310 311 310 311 311 309 309 310 308 308 308 308 309 311 312 312 311 309 308 311 311 312 313 314 315 313 313 314 314 313 312 310 310 312 314 315 315
302 301 302 303 302 303 305 305 305 304 306 307 304 304 304 303 305 305 306 308 307 309 311 310 308 308 308 307 308 310 312 312 307 306 307 308 309 309 310 311 309 310 311 308 307 310 308 306 305 308 310 310 311 311 311 310 309 311 309 306 307 308 310 311 312 312 311 311 310 308 310 311 311 312 314 314 312 313 314 314 314 313 312 312 313 314 315 315
302 301 302 303 302 304 306 306 306 305 306 309 307 306 306 303 306 307 307 308 307 309 311 310 308 307 308 307 308 311 311 311 311 310 307 306 308 308 310 313 313 313 310 308 308 310 309 311 309 308 309 309 311 310 308 308 309 310 306 306 307 308 310 311 311 312 310 309 311 310 308 310 312 312 314 313 312 313 314 314 315 314 314 316 317 315 315 313
302 302 302 303 302 303 304 306 307 307 307 308 307 308 307 305 306 307 307 307 308 310 310 310 309 308 309 309 310 311 310 310 312 311 308 307 308 309 310 312 313 314 309 307 309 310 308 308 308 309 310 311 310 305 303 307 309 307 304 306 307 307 309 309 311 313 310 309 312 311 307 309 311 312 314 312 311 314 314 313 314 314 315 316 315 314 312 310
301 302 302 302 303 302 303 304 306 308 308 307 307 309 308 307 307 307 308 308 308 309 308 309 310 309 310 311 310 310 310 311 310 310 311 310 310 309 308 308 310 312 311 309 309 309 305 303 304 307 309 308 306 302 301 305 307 305 306 309 310 308 307 308 309 310 311 311 312 309 305 309 310 311 314 313 313 315 314 313 314 314 315 315 314 313 311 308
301 302 302 302 303 303 303 304 305 306 307 307 307 307 307 308 308 307 309 308 307 309 309 309 310 310 311 312 311 310 311 312 311 311 312 311 311 311 309 308 310 310 311 312 311 309 306 306 307 306 304 304 306 306 303 302 304 306 309 310 311 309 308 309 309 309 311 312 310 307 305 308 309 310 313 313 313 312 312 312 313 313 313 313 314 313 310 308
301 301 301 302 303 302 303 305 305 305 307 307 306 306 308 309 309 309 311 309 307 309 310 310 311 312 312 311 312 311 311 312 310 311 313 312 312 312 311 312 311 311 311 311 311 311 310 310 308 305 302 303 309 310 307 306 307 308 310 309 310 309 309 309 310 309 310 310 307 305 306 308 310 311 312 312 312 311 310 311 312 312 312 311 313 312 310 308
301 301 301 302 302 302 303 303 305 306 307 306 305 308 309 308 311 312 311 310 308 308 310 311 310 310 310 311 311 311 310 311 310 310 311 311 311 313 315 314 311 311 310 309 310 311 312 311 307 307 307 304 307 311 310 310 309 309 311 310 310 309 308 309 310 308 309 310 306 304 306 310 311 311 312 312 312 311 311 311 311 311 311 311 310 309 309 310
300 300 300 300 300 301 302 303 304 307 307 304 306 309 308 308 312 310 309 310 307 306 309 310 309 309 309 311 311 309 311 312 310 310 311 310 310 312 315 312 309 310 309 309 310 310 311 313 310 310 309 304 306 308 308 310 310 310 309 309 309 309 309 310 310 309 310 311 308 305 308 312 312 312 312 311 310 311 310 310 310 309 309 308 308 308 310 310
300 298 299 300 300 301 302 303 305 305 305 305 307 309 307 309 311 308 312 313 308 308 309 307 309 312 310 309 309 308 310 311 309 310 311 311 311 312 313 314 312 310 310 310 310 309 309 311 308 305 304 303 306 305 303 308 311 309 307 308 310 309 308 309 309 310 310 310 310 308 310 313 312 312 313 311 310 310 308 307 308 309 309 309 312 313 312 311
299 298 300 301 301 301 301 304 305 304 305 306 308 309 308 312 311 308 312 314 311 312 310 307 310 311 309 308 308 308 309 309 309 311 311 310 311 312 313 315 312 310 311 311 310 309 309 310 306 303 303 301 303 304 301 306 310 308 308 310 309 306 307 310 308 305 306 311 312 310 311 312 311 312 314 313 311 309 307 306 307 309 310 312 317 317 314 313
299 300 301 301 302 302 302 304 305 304 305 307 309 310 310 312 312 310 311 311 311 311 309 309 309 310 312 310 308 309 309 308 308 310 311 310 312 312 312 313 311 311 313 310 310 311 310 311 307 304 307 302 298 301 302 303 306 309 310 309 306 305 306 309 310 309 309 312 313 310 310 311 311 312 314 314 313 311 310 309 309 311 314 315 318 318 315 313
299 300 302 302 303 303 302 305 305 304 306 308 309 311 311 310 308 309 311 309 309 310 309 308 308 308 312 311 309 309 309 309 309 309 310 310 311 313 312 313 311 310 311 309 308 309 308 311 309 302 305 304 299 303 307 305 302 306 308 304 305 310 311 309 310 311 311 311 312 311 310 310 309 311 313 312 313 312 311 311 311 311 313 314 316 319 319 316
298 300 304 304 303 303 304 305 304 304 307 308 309 310 310 309 307 307 310 310 310 310 309 309 308 306 309 311 310 309 309 310 309 308 309 309 311 312 311 312 311 307 308 308 308 308 307 309 311 304 303 304 303 306 310 309 304 304 306 304 304 308 310 310 309 309 311 311 310 312 313 313 312 311 311 312 312 312 311 312 312 312 312 313 314 316 318 317
299 301 304 304 303 304 304 304 305 306 308 307 308 309 306 307 309 306 304 308 310 309 310 312 309 306 310 310 308 309 308 308 307 308 308 307 309 312 310 310 310 307 305 306 308 309 306 307 310 307 302 304 308 308 310 312 309 307 308 308 306 306 306 308 307 306 309 310 309 310 314 315 312 311 311 311 312 312 312 312 313 314 314 314 314 314 316 318
299 300 305 303 303 304 303 305 306 306 308 307 307 308 306 307 311 307 302 304 309 308 308 313 311 307 310 309 307 308 308 307 307 307 308 307 308 311 310 309 310 308 306 307 308 308 307 307 309 309 306 309 310 305 303 307 309 309 310 310 310 309 307 310 310 306 305 308 309 309 312 314 313 312 311 311 311 311 311 312 311 312 312 312 313 314 317 318
299 301 305 301 303 303 304 307 306 303 307 308 306 307 308 308 309 308 304 303 306 307 307 310 311 308 308 308 308 308 309 309 307 307 308 309 310 309 308 307 308 308 309 310 309 309 308 307 308 310 309 307 304 299 297 299 301 305 308 308 309 310 310 312 313 309 305 306 306 306 310 314 314 313 311 310 310 309 309 311 310 310 309 308 309 311 314 315
301 304 302 300 302 303 305 307 305 303 307 306 303 305 307 307 306 306 305 305 306 308 308 308 309 309 309 308 307 308 310 309 309 309 308 307 308 309 307 306 307 309 311 310 309 309 309 308 309 310 309 304 299 298 297 296 299 305 306 304 307 309 309 309 309 308 308 307 306 307 311 314 315 315 313 310 310 309 309 310 310 309 308 308 308 308 309 311
303 303 301 300 302 302 305 307 306 306 307 305 303 304 304 304 305 307 307 307 307 308 310 310 309 309 309 306 306 309 310 308 310 311 308 306 308 305 302 304 305 307 311 310 309 310 309 309 310 310 310 308 304 304 304 301 301 306 307 304 306 307 306 306 305 306 309 310 310 310 312 314 315 316 313 310 310 310 309 309 309 310 310 309 309 308 307 308
300 301 300 301 301 302 304 304 304 305 306 306 305 304 303 302 304 306 307 308 308 308 309 310 309 309 306 303 305 308 308 307 308 308 306 306 306 302 301 303 304 307 312 311 310 311 310 309 309 311 311 310 309 309 309 308 305 305 305 304 305 306 306 307 308 308 310 311 310 311 312 313 313 313 312 311 311 309 309 309 309 310 309 309 308 308 307 307
300 302 301 301 301 302 302 300 300 302 304 304 304 303 304 304 304 303 304 307 308 307 308 307 307 307 305 303 306 309 308 305 304 305 305 305 305 304 302 302 303 304 306 306 306 307 308 308 309 311 312 311 312 311 308 308 308 307 307 304 305 306 307 308 309 310 310 309 309 310 312 313 313 312 311 311 310 309 310 309 309 309 309 310 309 308 307 306
298 302 304 303 302 303 303 301 301 302 302 303 304 303 304 305 304 302 302 304 305 305 307 306 305 307 306 305 306 309 310 306 303 305 305 303 304 303 299 299 301 301 302 305 305 305 307 309 309 310 312 312 312 310 307 307 308 308 309 307 305 305 306 308 310 310 310 309 310 311 312 312 311 310 311 311 310 310 309 309 308 308 308 308 309 308 307 306
297 301 303 304 304 305 304 304 304 303 302 302 303 304 304 304 304 304 303 301 300 302 306 307 306 308 309 308 307 309 310 307 305 307 306 304 303 302 301 300 299 299 302 304 303 303 307 310 308 307 310 311 310 307 305 306 306 306 308 309 307 305 305 308 310 310 309 310 312 312 312 311 310 309 310 310 310 309 309 308 308 307 307 307 307 307 307 307
298 299 299 299 302 305 305 306 306 304 303 303 302 303 304 304 305 304 303 302 301 302 305 308 309 308 309 309 308 308 309 308 308 309 308 306 304 303 303 303 300 298 302 303 303 304 307 310 310 307 307 308 307 306 304 305 305 305 305 307 308 306 306 307 309 310 309 310 311 312 312 311 310 309 309 309 309 309 308 308 308 307 308 308 307 307 307 306
298 300 300 298 299 300 302 305 306 304 304 303 302 302 303 303 305 304 303 305 306 303 302 306 309 308 307 309 308 308 309 309 310 311 307 304 305 303 304 306 305 300 300 303 304 303 304 309 311 307 307 308 307 304 303 303 304 305 305 305 306 306 306 306 308 309 309 310 310 311 312 311 309 309 309 309 309 309 308 308 308 307 307 307 306 306 306 306
298 296 297 299 300 301 301 302 304 305 304 303 303 303 303 303 304 304 303 305 308 306 304 306 309 307 305 307 308 309 309 309 310 311 309 306 307 306 305 307 309 306 302 302 304 303 303 305 305 304 306 309 305 301 300 300 301 302 303 304 304 305 305 306 307 308 308 309 310 309 309 309 309 309 309 309 308 308 307 307 307 307 307 305 304 305 305 305
298 295 294 297 301 302 301 301 302 304 305 304 303 304 304 304 304 304 304 304 307 308 306 307 308 306 304 306 308 308 310 310 309 309 308 307 308 307 305 306 309 309 305 303 302 302 302 304 303 303 306 307 302 298 299 299 300 301 303 305 305 305 305 306 306 306 307 308 309 309 308 309 309 309 309 308 308 308 307 307 306 306 306 305 304 304 304 304
Wind_Speed
7 7 7 7 6 6 6 7 8 9 8 8 8 8 9 9 9 10 10 12 12 12 11 10 11 13 12 13 12 14 18 19 19 11 8 9 10 12 10 6 6 5 7 10 9 7 3 2 4 6 5 4 1 1 4 2 1 3 3 4 7 7 6 5 7 5 2 5 1 2 2 6 5 1 2 1 6 9 6 7 9 7 10 15 13 9 9 7
7 7 8 8 7 7 7 8 9 9 9 10 10 10 10 10 10 10 11 13 13 12 12 11 12 13 11 12 12 14 20 22 18 9 8 9 9 11 9 6 6 5 5 8 10 8 3 1 4 6 4 3 1 1 4 3 2 4 2 4 7 6 4 3 4 5 5 7 3 0 2 5 6 2 1 4 9 9 9 10 9 10 15 18 17 17 17 12
8 8 8 9 8 8 8 9 9 9 10 11 11 11 11 11 10 10 12 14 13 12 12 10 12 13 11 11 12 14 18 18 10 5 4 6 3 6 6 4 5 5 7 8 9 8 5 3 7 7 3 4 1 1 5 3 3 3 2 5 6 3 3 3 5 7 7 6 7 5 2 4 7 3 1 6 13 12 12 12 10 12 15 16 15 16 15 14
8 9 9 9 9 9 9 10 11 10 10 11 11 12 11 12 11 10 12 13 13 13 12 11 11 11 11 11 12 13 12 7 3 3 4 5 3 3 4 4 4 6 7 7 8 7 6 5 8 7 4 4 1 2 5 4 2 2 3 6 2 2 5 6 7 8 5 3 8 6 1 6 6 2 5 8 12 14 12 13 13 14 16 16 14 9 9 11
9 10 9 10 10 9 10 11 11 11 11 11 12 13 12 11 11 11 12 13 14 14 13 12 10 10 11 12 12 11 6 0 2 3 4 4 3 1 2 3 5 6 5 7 7 6 6 6 7 5 4 5 3 3 5 4 2 2 4 4 1 3 5 4 3 5 2 2 6 5 5 7 2 3 9 11 13 13 10 8 11 14 17 15 12 4 5 8
10 10 10 10 11 10 10 11 12 12 11 12 13 14 14 12 11 12 13 14 15 14 14 10 8 10 11 11 9 6 3 1 2 6 7 6 4 3 2 3 5 5 4 6 6 7 6 6 7 6 5 6 7 6 3 4 2 4 4 2 3 5 5 2 2 2 3 4 6 6 5 4 5 10 9 13 18 17 14 8 7 13 14 10 7 4 6 10
11 11 12 11 11 11 10 11 13 12 11 12 14 14 15 14 13 14 14 16 16 14 12 8 6 8 9 8 5 2 2 3 5 8 8 6 5 5 5 4 4 4 3 7 9 7 5 8 9 6 7 6 7 8 2 4 3 5 5 3 4 4 6 4 2 2 3 7 7 2 4 6 13 12 4 10 18 19 19 14 11 14 12 8 8 11 12 13
11 11 12 11 12 12 11 11 12 12 12 13 15 14 14 15 14 15 15 15 15 13 9 5 3 5 7 7 4 2 1 3 7 8 7 7 6 7 6 4 3 4 5 10 10 7 5 9 10 6 7 5 5 7 3 4 4 7 8 4 2 3 7 5 1 5 5 8 6 3 8 14 15 7 8 17 20 19 19 16 16 16 13 12 14 16 15 15
12 11 11 12 13 13 12 11 11 11 12 13 15 14 14 15 14 14 14 12 13 12 8 4 2 3 5 5 3 4 2 5 9 7 7 9 8 9 8 5 4 4 5 8 9 8 5 8 10 6 5 4 4 6 4 4 4 7 8 2 2 3 5 3 5 8 5 5 3 5 15 14 7 5 13 23 19 15 13 13 15 12 13 14 13 15 14 14
12 12 12 13 13 13 12 11 11 11 13 14 14 13 14 14 13 12 13 10 10 11 7 4 3 3 4 3 2 3 3 6 10 8 8 11 11 12 9 6 5 6 6 6 8 9 5 6 7 3 2 2 4 3 3 4 2 3 4 1 5 5 2 2 6 6 2 4 5 8 17 11 1 2 13 15 4 1 3 7 8 7 11 12 11 12 11 12
10 11 12 13 13 13 13 12 12 12 13 14 12 13 13 13 12 11 12 11 8 9 5 4 3 2 3 2 1 2 3 6 11 12 12 14 14 12 8 7 7 9 9 6 9 13 10 5 3 3 1 2 5 2 1 3 0 1 1 3 6 5 4 6 8 5 2 5 5 7 15 12 1 3 18 15 3 3 5 9 8 8 11 12 12 11 9 10
9 10 11 12 13 14 15 14 13 13 14 13 12 13 13 11 10 10 11 11 7 6 3 3 3 2 1 1 2 6 6 8 12 14 17 16 14 8 5 6 8 11 12 8 7 13 15 8 5 5 2 3 5 2 2 2 1 1 1 5 6 5 7 6 4 2 3 3 2 3 11 11 8 12 24 15 2 2 10 13 13 12 13 12 12 10 9 10
9 9 10 11 12 14 15 15 14 15 15 14 13 13 12 10 9 10 11 10 6 5 4 3 4 4 2 1 4 5 7 10 11 14 18 16 11 7 7 6 7 10 14 12 7 9 14 13 9 5 1 2 2 1 2 2 0 2 1 3 6 6 5 2 1 1 4 2 2 3 7 7 9 16 20 6 3 4 10 13 12 10 9 10 9 8 9 10
10 10 10 10 11 12 14 15 16 15 15 15 14 12 10 9 8 9 10 9 5 6 4 3 3 4 3 4 5 5 8 10 11 13 16 14 9 6 7 7 5 7 11 12 9 6 10 12 8 3 2 1 1 2 2 2 1 1 1 1 3 5 2 4 2 2 4 1 2 5 6 7 6 9 7 2 2 4 8 12 11 9 8 8 9 8 10 10
10 10 10 10 11 11 13 15 16 16 16 15 12 10 9 8 7 7 8 7 5 8 5 3 4 5 0 6 6 5 8 8 11 13 13 10 6 4 5 4 3 5 6 8 8 5 9 11 7 3 2 1 1 3 1 0 1 1 1 3 2 3 2 2 2 2 2 0 2 5 6 8 10 8 1 3 1 4 8 13 12 13 14 12 11 10 11 10
10 10 10 11 10 11 12 13 14 15 14 13 11 9 8 6 5 6 7 5 6 8 6 2 7 6 3 4 2 2 5 7 9 11 9 7 6 3 3 3 3 2 4 6 7 7 7 6 3 0 1 1 2 2 2 3 2 1 3 5 2 3 3 1 2 1 2 1 3 6 6 8 9 8 2 3 4 7 12 17 15 15 15 12 11 9 10 10
10 11 11 11 11 10 11 12 12 12 11 10 9 7 6 4 4 4 4 5 5 7 6 1 3 5 3 2 2 2 4 5 7 7 6 5 4 2 4 4 2 3 6 7 6 4 2 2 0 1 1 1 1 2 3 5 5 3 3 5 3 3 3 3 1 2 1 2 4 6 8 15 16 13 11 8 10 13 17 19 17 15 13 12 10 10 10 10
10 10 11 11 10 10 10 11 11 10 8 7 6 5 4 3 4 4 4 7 6 4 4 2 1 3 2 3 3 2 2 4 4 4 4 3 2 3 4 2 2 4 6 5 2 0 1 1 1 1 2 1 3 5 5 4 2 2 3 3 2 2 3 5 3 1 1 3 5 7 10 19 22 17 15 14 13 15 18 18 16 15 15 13 11 11 11 10
9 10 11 11 10 10 10 10 10 9 6 4 3 4 4 4 4 4 5 8 5 2 1 3 4 2 0 3 1 2 2 2 2 3 2 2 1 4 3 1 2 3 4 3 2 1 0 1 2 3 5 6 7 9 8 2 2 1 1 2 4 4 4 7 4 1 1 5 8 10 12 17 22 18 14 13 12 15 18 17 15 13 12 11 11 12 11 11
9 9 10 11 10 10 9 9 8 6 4 3 7 6 4 4 2 2 4 6 6 2 1 4 7 2 0 2 1 2 3 3 1 2 2 1 2 3 2 2 2 1 2 2 2 1 0 3 6 5 4 5 6 6 4 2 3 1 1 3 5 5 6 7 3 1 1 5 7 7 11 17 21 21 16 12 12 15 17 16 14 11 9 9 10 11 11 11
9 9 10 10 10 9 9 8 7 4 4 6 10 5 2 3 2 1 3 7 9 5 2 2 5 5 2 1 0 1 2 2 1 1 3 1 2 4 1 1 3 3 1 1 1 2 1 6 7 2 1 1 1 1 2 2 1 2 3 5 5 5 6 4 1 0 1 3 4 1 9 17 20 22 17 11 11 13 14 13 13 10 9 8 8 10 10 8
9 9 10 10 9 9 8 7 6 4 4 8 9 4 2 2 2 1 2 5 6 4 1 1 2 5 3 1 1 2 1 2 2 1 2 3 2 2 0 1 2 2 2 1 2 2 4 7 3 2 2 3 3 1 3 4 3 3 3 4 4 3 4 2 1 1 2 2 3 2 8 17 20 21 18 12 10 11 9 8 10 10 8 8 7 7 7 8
10 9 9 9 9 8 6 5 5 5 6 9 8 5 2 1 2 3 1 3 2 1 2 2 2 3 2 1 3 3 3 3 2 2 2 2 2 1 1 3 1 2 2 4 5 4 4 3 1 2 2 3 4 2 3 2 3 4 3 4 4 0 2 3 1 1 3 3 5 6 8 13 16 16 14 9 6 5 4 6 9 9 9 8 6 6 6 8
10 10 9 8 8 7 5 4 5 6 8 10 10 8 4 2 3 1 1 2 2 0 1 1 2 3 2 1 3 4 3 2 2 1 2 1 3 1 2 3 2 3 4 5 5 5 3 2 1 3 2 2 3 3 5 4 3 4 6 6 5 1 2 4 2 3 5 2 3 8 7 8 8 10 12 5 4 3 3 5 9 9 8 7 6 7 6 7
11 10 9 8 7 6 4 4 5 5 6 8 10 11 8 4 2 1 1 1 2 1 0 1 2 2 2 2 1 1 1 1 1 0 2 1 2 1 1 1 1 4 4 4 3 5 2 2 1 4 2 2 3 3 5 5 4 3 5 7 5 1 2 4 3 4 5 2 1 5 5 4 5 11 15 7 3 6 4 5 10 8 6 5 5 6 5 5
11 10 9 8 6 4 2 2 3 5 4 5 7 8 10 8 2 1 1 1 2 1 1 2 1 2 4 1 2 1 2 1 1 1 2 1 0 1 2 1 1 1 3 4 2 2 1 2 1 2 3 3 3 3 4 5 4 3 1 2 1 2 1 3 4 4 4 2 1 1 4 4 7 13 12 5 7 11 6 4 7 6 4 3 4 4 2 2
10 10 9 8 5 1 1 1 2 4 2 3 5 5 8 11 6 2 1 1 2 1 1 1 0 2 4 0 1 2 2 1 1 1 1 2 1 0 1 3 1 0 2 2 2 1 3 3 2 2 3 3 3 3 3 6 4 1 1 1 3 4 3 3 3 3 2 4 1 2 2 3 6 10 4 3 8 9 5 3 4 3 2 2 3 3 3 4
10 10 9 8 5 3 3 2 2 4 2 1 3 4 6 10 7 2 2 2 1 1 0 1 1 1 2 1 1 1 0 0 1 1 1 2 1 0 2 4 3 2 2 3 3 0 1 3 5 4 3 3 3 1 1 6 4 1 2 1 2 2 2 2 3 3 1 3 3 3 0 3 5 8 2 3 6 5 1 4 5 4 3 0 2 3 4 5
9 10 9 8 6 5 7 7 5 5 3 2 1 4 8 10 5 1 1 2 1 1 1 1 2 1 1 1 1 2 0 0 1 0 0 1 1 1 1 2 3 4 2 3 3 1 1 2 2 3 3 2 2 3 2 3 2 2 4 3 2 2 1 1 2 2 1 3 4 3 0 3 5 8 5 0 3 3 1 1 1 1 2 3 4 5 5 5
8 9 9 8 7 4 7 9 10 6 2 2 1 7 10 7 2 1 1 1 1 1 1 0 1 1 1 2 1 1 1 0 2 1 0 1 1 2 1 0 1 3 2 2 2 0 1 1 1 2 1 1 4 4 2 1 2 3 4 2 2 2 1 1 0 1 2 3 1 3 0 2 4 6 4 2 2 1 1 2 2 3 4 4 4 5 6 6
8 8 8 8 6 4 4 5 8 9 5 2 5 9 7 3 0 1 2 1 1 1 1 1 0 0 1 2 1 0 1 0 1 0 2 2 1 2 2 1 2 2 2 3 2 2 2 2 2 1 1 2 3 3 2 1 1 1 2 2 2 2 2 2 2 1 3 3 2 3 1 2 5 5 2 1 2 2 3 4 6 7 7 8 7 6 6 6
8 9 9 9 8 8 8 4 3 7 7 5 7 5 3 1 1 3 2 2 1 1 1 1 0 1 1 0 0 1 1 1 1 1 2 2 2 4 3 3 3 3 3 3 3 2 3 2 2 2 1 2 3 3 3 2 2 2 2 2 3 2 1 3 2 2 3 1 3 1 1 2 8 9 8 10 9 6 6 6 8 9 8 10 9 7 6 6
9 9 10 11 11 13 14 7 2 5 8 8 5 1 1 2 3 2 2 1 1 0 1 2 2 1 2 1 1 1 1 1 0 1 1 0 2 4 3 1 2 2 1 1 2 2 2 2 3 4 2 1 3 3 2 2 4 4 3 3 3 2 2 3 2 1 3 0 2 1 1 3 7 7 9 13 10 6 5 6 6 5 7 10 9 8 7 6
10 10 12 13 15 17 16 10 4 6 10 7 2 1 2 3 3 1 2 2 1 1 1 2 2 2 1 1 0 1 2 1 1 1 2 2 2 4 3 3 4 2 0 1 2 2 3 1 3 3 2 1 3 2 2 1 4 3 1 0 2 2 2 3 2 2 2 2 1 2 1 4 4 1 3 8 8 6 6 5 4 4 5 7 6 6 7 6
11 12 13 13 14 16 16 13 7 8 10 5 1 2 3 3 2 1 2 2 1 1 1 1 2 2 1 1 1 1 2 0 2 1 3 3 3 3 3 4 6 4 3 3 2 1 3 3 2 2 1 0 2 1 1 0 3 2 1 0 2 1 1 1 1 1 2 3 2 3 3 5 4 6 8 8 7 6 6 4 3 4 4 3 4 5 4 4
12 11 10 9 10 11 15 15 10 9 7 4 3 4 4 3 2 3 2 3 3 4 4 1 1 2 2 2 1 0 0 0 0 1 3 3 3 3 2 2 6 8 6 3 2 2 2 1 2 1 1 1 1 1 0 2 1 2 3 2 0 2 1 1 1 1 0 4 2 2 5 5 3 6 6 4 3 2 1 0 1 3 3 3 3 3 3 3
10 7 4 5 7 9 15 15 11 9 5 3 5 5 3 3 3 3 2 2 1 3 5 2 2 3 2 2 2 3 2 1 1 2 2 2 3 4 4 2 4 9 5 1 1 1 1 1 2 1 1 3 2 1 1 1 1 1 2 1 1 1 1 0 2 1 1 4 2 1 5 5 2 2 3 3 3 2 2 1 2 3 2 3 4 3 3 3
8 3 3 5 8 10 15 15 12 9 3 2 6 5 3 3 2 2 2 2 1 1 3 3 3 1 2 3 2 3 3 3 3 2 2 2 2 4 5 2 3 4 1 1 1 1 1 2 1 2 1 2 1 3 2 1 1 1 0 1 0 1 1 1 2 2 2 3 3 2 5 4 4 4 4 5 4 3 3 2 4 5 3 3 4 3 3 2
4 1 2 5 10 11 16 16 11 6 3 4 6 5 3 3 2 1 1 0 1 2 3 4 2 0 2 3 2 3 4 3 4 3 3 3 2 3 4 2 1 1 1 1 2 0 1 3 1 2 2 2 1 4 4 4 3 0 1 1 0 2 1 1 1 1 2 2 3 3 3 4 6 6 5 8 6 5 5 4 4 5 5 4 3 3 4 4
1 1 1 6 11 14 18 14 6 4 4 4 5 3 1 2 2 1 0 1 1 2 2 2 1 2 3 2 1 2 3 3 4 3 2 2 2 3 4 3 3 2 1 1 1 1 2 2 2 2 1 2 3 3 4 5 5 4 4 4 3 1 1 2 1 0 1 2 2 2 4 6 4 4 8 13 11 7 6 5 5 5 5 4 2 2 3 4
2 1 1 7 12 17 18 9 3 4 3 2 2 2 1 2 2 1 0 0 0 0 0 1 1 2 3 2 2 3 4 3 4 3 3 4 4 4 3 2 5 7 4 2 2 3 3 2 2 2 2 4 2 2 2 1 1 3 5 5 6 5 3 3 3 1 1 2 2 1 5 9 3 3 7 12 10 7 5 6 7 6 5 3 2 2 3 4
2 1 2 7 16 20 13 5 2 1 2 3 2 1 2 2 3 3 3 2 1 1 1 0 1 2 3 2 1 3 5 3 4 3 4 5 5 3 0 1 4 6 4 3 2 1 1 1 2 3 2 2 1 3 2 3 3 1 2 2 4 5 5 5 4 2 2 1 0 2 3 9 3 3 4 5 5 4 3 5 6 5 5 3 3 4 4 6
1 2 3 5 15 17 8 2 2 1 3 3 1 1 1 1 3 3 4 4 2 2 1 2 2 3 4 3 2 4 5 4 6 5 3 5 5 2 1 1 3 4 2 1 2 2 2 2 3 3 1 2 1 1 1 2 2 2 3 3 4 4 3 2 1 1 2 4 3 2 4 9 3 2 1 0 0 2 2 4 5 6 6 5 5 6 6 7
1 1 2 2 11 12 5 4 5 5 5 1 2 2 1 1 4 4 5 7 5 4 3 3 3 3 2 2 3 4 6 4 5 5 3 3 3 2 3 2 3 4 2 1 2 4 4 3 3 3 2 2 2 2 2 1 2 4 3 4 6 4 4 2 1 1 3 6 8 5 7 9 2 2 2 2 1 5 8 7 6 7 9 6 4 6 7 7
1 1 1 1 6 6 3 2 2 4 6 5 4 4 3 2 3 2 5 6 4 4 4 1 2 1 2 2 1 2 5 4 3 3 2 2 2 2 2 1 3 3 1 1 0 2 3 3 4 4 5 6 5 3 2 2 4 4 3 7 10 9 9 6 3 3 5 6 10 8 10 11 7 4 9 10 8 11 14 11 7 6 8 7 5 6 6 6
2 2 1 2 1 3 2 1 1 2 5 6 4 3 6 7 3 0 3 5 4 4 2 0 1 2 2 3 2 2 6 4 1 1 2 3 2 1 1 0 1 1 1 2 1 1 1 2 6 7 8 8 5 2 1 3 5 5 5 9 11 12 12 7 3 5 6 4 7 11 12 13 15 15 16 15 13 14 16 15 9 5 6 6 6 6 6 7
2 2 4 4 1 4 3 2 3 3 2 6 6 5 9 11 5 2 3 4 2 3 2 1 3 4 5 6 4 4 5 3 1 1 3 4 1 1 1 1 1 1 1 1 2 1 1 3 7 9 10 10 5 0 3 3 3 5 7 9 11 12 12 11 9 7 6 4 7 14 13 13 17 20 20 18 16 16 15 15 13 10 6 5 5 6 9 10
3 1 2 3 2 5 7 7 9 8 5 6 5 4 8 10 8 6 5 1 1 2 4 3 5 10 10 9 6 4 3 2 3 3 4 3 2 2 1 0 1 2 2 2 1 2 2 4 4 6 11 12 7 1 5 4 2 3 6 8 12 14 15 16 14 9 9 9 13 12 11 13 17 20 21 20 19 18 16 13 11 11 11 8 8 10 12 13
2 2 2 1 1 5 9 9 11 12 10 7 5 4 6 9 10 7 3 3 2 5 6 6 9 12 11 9 8 7 5 5 7 6 5 4 3 3 2 2 2 2 3 4 2 1 3 3 1 2 7 12 8 3 7 7 6 6 8 9 11 14 18 18 16 14 14 15 16 13 13 15 18 20 21 22 19 13 11 12 12 14 13 10 10 13 14 14
2 1 2 1 1 3 4 4 7 10 10 8 8 6 4 8 11 7 2 6 8 4 5 11 15 10 11 11 10 11 13 14 11 7 7 7 3 3 4 3 3 3 3 5 3 2 4 2 2 3 4 9 6 2 5 7 8 9 10 11 12 12 13 14 14 14 13 15 17 14 13 15 18 20 20 21 18 11 12 17 18 16 11 8 10 12 13 14
5 2 1 1 2 4 4 2 5 6 7 8 8 6 5 11 14 10 5 7 10 7 10 17 16 6 7 9 10 15 21 18 12 7 8 9 5 4 4 3 5 7 5 5 3 2 4 3 2 3 4 6 1 2 3 2 3 6 8 14 17 14 12 14 14 12 14 16 14 10 9 14 18 18 15 14 14 13 15 17 15 12 8 7 10 12 12 12
8 2 1 1 3 5 5 3 4 5 5 7 11 11 12 15 14 11 7 5 8 10 12 15 12 6 5 10 15 19 18 9 5 3 4 4 2 2 2 2 5 7 7 7 3 2 5 4 2 2 4 4 1 2 4 2 2 6 9 14 17 15 14 14 11 11 16 15 10 10 13 15 16 15 12 12 13 13 12 10 9 10 9 7 9 11 12 12
Wind_Direction
284 291 292 291 288 286 290 292 291 293 296 291 293 300 302 302 298 301 309 314 317 321 319 323 321 316 326 329 320 314 315 317 318 305 231 257 272 237 231 224 215 223 229 228 228 217 176 137 131 133 152 164 222 182 161 148 140 187 185 217 228 224 218 200 215 218 282 305 296 128 201 247 273 200 198 225 229 235 239 244 237 242 247 242 249 257 242 236
279 285 288 289 285 280 282 284 287 291 293 293 295 298 297 295 297 303 313 317 317 318 316 320 319 315 321 321 316 312 314 319 314 281 244 283 274 225 223 232 220 215 210 211 221 215 179 113 140 146 168 190 209 167 179 160 175 208 169 218 228 221 218 194 229 231 247 279 297 194 205 243 271 290 131 255 253 237 243 251 232 241 251 246 246 245 241 234
276 281 283 285 281 275 274 277 284 288 291 294 296 294 293 295 296 300 313 321 321 316 312 313 315 317 320 314 315 316 317 323 318 274 292 332 305 196 189 207 209 214 217 219 231 224 212 203 169 166 196 216 195 170 196 172 180 214 193 228 231 221 248 229 225 234 239 270 287 274 196 240 256 256 192 256 269 255 245 251 236 244 255 254 246 233 227 227
275 275 277 280 278 274 272 274 279 285 291 294 296 294 293 295 292 297 312 319 319 314 308 305 306 315 321 318 320 322 324 335 323 290 339 8 31 132 170 208 226 230 232 234 240 228 217 193 170 177 204 210 182 190 204 182 173 186 203 235 214 128 250 232 213 235 246 256 271 276 261 260 256 223 230 249 268 262 252 246 238 252 263 265 263 233 203 220
276 275 275 276 277 275 270 272 279 284 291 295 297 295 292 291 288 296 308 310 310 309 306 305 301 308 317 321 323 321 318 79 182 261 334 0 352 65 174 219 237 242 241 239 234 205 187 158 154 170 208 214 177 189 207 181 158 191 210 254 194 155 238 228 185 233 238 224 254 252 255 271 280 217 232 236 252 262 269 250 231 249 262 270 276 251 190 220
275 275 275 276 277 274 269 271 277 282 289 293 295 296 295 293 286 292 302 305 306 304 303 305 303 304 317 324 318 314 306 275 280 287 318 338 319 326 287 253 248 258 255 229 195 167 159 150 167 177 206 221 193 200 201 149 187 234 209 235 217 196 232 230 118 209 196 215 236 240 267 294 266 257 241 232 246 259 268 264 245 253 261 279 292 257 233 235
273 275 274 275 275 274 271 269 274 282 288 289 290 294 299 297 290 291 300 305 304 303 301 300 304 304 319 330 301 257 247 269 304 311 324 324 305 317 312 293 257 260 236 193 168 161 161 165 183 185 202 218 201 207 181 133 198 248 231 223 218 191 230 239 105 192 208 231 242 277 303 271 253 265 289 247 249 256 262 263 259 260 262 270 270 257 252 252
274 276 274 273 272 272 270 267 273 281 284 284 285 291 296 296 293 294 299 302 300 303 300 286 298 314 324 336 311 284 262 284 321 334 332 312 308 326 317 313 271 248 211 194 175 169 173 177 183 175 203 218 199 196 164 157 192 229 235 228 191 184 233 243 213 238 234 241 257 296 269 259 257 287 305 267 258 256 258 260 257 259 260 256 257 259 257 257
277 277 275 272 271 270 269 267 269 274 277 277 280 287 290 289 290 290 292 294 296 301 307 285 291 343 328 313 315 332 310 308 327 329 325 317 321 328 317 313 282 233 206 206 188 175 175 188 189 181 210 212 190 184 173 205 207 215 221 205 204 230 244 238 250 249 239 243 236 254 262 261 268 319 281 263 258 260 259 257 257 257 259 256 254 256 255 255
285 281 276 275 276 274 272 267 263 264 267 269 274 282 284 285 287 286 286 287 284 289 309 312 291 357 335 292 319 334 283 310 324 315 321 324 321 320 310 300 280 234 213 208 195 185 183 204 191 178 256 191 184 178 170 211 215 199 202 234 248 255 270 224 250 253 254 259 209 236 267 269 38 355 271 260 238 259 264 245 246 242 251 253 250 253 250 250
291 289 284 280 280 279 276 270 265 262 262 266 273 277 279 280 285 286 283 286 276 272 306 333 303 328 328 323 45 270 276 326 323 312 316 318 314 314 296 281 271 239 223 207 209 207 211 231 168 138 302 159 169 171 207 218 62 86 177 260 250 256 265 235 248 260 255 259 208 229 271 270 161 208 254 254 135 113 269 254 243 240 251 253 250 252 247 249
290 290 291 284 280 277 276 274 269 264 263 267 270 272 273 273 276 278 276 282 276 252 258 322 295 260 292 301 231 251 291 320 310 304 307 308 308 301 264 265 265 243 229 213 228 222 219 226 179 177 219 153 155 156 203 195 50 105 215 278 269 272 267 232 237 256 218 245 168 211 275 260 202 215 246 251 145 245 273 268 261 254 256 260 257 256 252 253
296 293 291 286 282 276 274 275 271 269 266 265 263 263 266 265 263 264 268 276 269 220 221 299 274 213 150 265 236 251 292 308 300 297 297 296 296 274 242 262 265 242 230 223 242 233 218 217 198 198 251 159 171 148 154 121 303 204 145 298 291 285 270 189 142 204 207 229 146 214 279 265 204 220 244 263 60 277 271 267 263 254 250 256 255 253 255 254
303 299 292 287 287 281 275 273 272 271 268 264 262 261 263 263 259 261 264 267 241 193 206 302 252 172 145 261 264 269 281 295 292 284 281 280 285 264 245 273 268 230 224 225 240 235 207 198 182 158 48 354 155 142 151 121 228 241 109 264 278 275 242 129 161 212 207 196 169 229 263 276 266 246 241 27 28 257 265 266 265 265 261 261 259 255 257 254
307 302 294 287 287 285 279 273 272 273 272 272 270 267 265 265 266 262 258 258 219 183 197 259 201 158 151 273 276 270 256 268 270 262 261 264 278 269 245 263 247 209 204 210 216 183 167 167 162 145 120 290 154 159 222 214 162 70 271 241 191 232 239 124 146 219 257 111 173 231 263 277 281 279 175 83 245 227 261 269 271 274 273 270 267 263 261 260
306 304 298 290 286 286 282 275 274 275 278 280 276 271 267 267 262 245 238 224 193 178 179 220 196 188 292 286 264 237 221 227 236 240 243 250 271 277 213 178 151 152 148 154 152 135 136 140 138 84 121 180 180 189 259 262 233 163 235 255 216 223 270 325 129 137 297 295 199 227 273 290 275 270 246 141 236 262 274 275 274 271 272 271 267 265 265 269
304 306 304 297 288 286 285 279 273 271 271 267 264 264 261 257 222 213 213 188 178 172 175 218 191 195 270 269 228 238 202 197 208 227 234 240 264 237 173 158 138 122 123 129 134 127 82 70 99 248 101 82 166 186 235 247 242 184 202 248 242 228 273 296 173 109 312 250 238 226 252 271 268 271 275 261 265 275 275 277 277 273 271 272 272 271 271 273
305 306 306 302 295 288 287 285 278 270 260 248 250 245 226 207 172 168 163 151 127 121 183 256 180 185 237 216 237 260 181 173 200 234 233 227 245 180 183 175 135 139 132 129 133 145 356 41 261 214 150 185 183 192 213 234 243 180 202 234 259 228 230 270 269 65 329 253 256 249 253 269 272 274 272 267 270 272 270 274 276 274 272 274 277 275 274 272
306 306 307 305 300 294 289 287 284 274 260 242 216 178 156 122 119 144 150 148 139 114 195 216 184 166 167 177 221 293 247 222 204 213 205 203 143 132 144 122 119 132 147 159 144 109 207 127 187 216 204 202 195 206 221 224 71 112 190 254 283 275 250 263 273 40 332 274 262 255 260 274 280 280 271 263 265 268 272 275 274 272 271 270 269 270 269 268
308 307 308 306 302 299 294 290 287 272 255 199 155 142 140 136 128 159 166 193 218 216 60 185 194 230 44 145 75 319 286 276 202 148 125 194 172 139 96 57 106 123 156 177 138 102 226 200 206 216 208 201 205 218 231 67 73 138 220 263 266 268 273 272 278 70 82 275 264 254 272 278 281 282 276 264 260 265 272 275 274 276 279 271 265 267 268 268
310 309 310 309 306 303 298 295 291 267 234 182 164 164 202 191 229 207 177 227 233 232 323 201 211 258 276 159 291 313 296 278 267 82 61 38 161 173 218 83 164 175 139 57 95 95 207 225 222 217 75 111 203 204 168 160 192 247 252 270 266 252 270 279 331 317 156 265 262 258 287 282 280 283 283 276 260 259 264 270 276 285 291 284 271 267 270 275
310 313 312 309 309 307 303 301 296 273 223 189 187 220 269 234 250 163 180 248 238 216 243 187 227 269 281 244 175 143 171 250 254 180 40 28 143 185 210 134 185 178 101 113 165 150 211 229 220 68 78 97 76 114 181 207 230 233 238 267 268 257 273 269 74 107 177 247 288 353 305 287 282 282 284 279 262 260 259 262 276 285 284 277 272 274 281 288
310 315 316 313 313 309 304 303 292 269 216 195 202 226 253 249 176 144 197 269 274 157 161 169 202 233 257 232 168 156 201 239 224 186 10 0 176 220 177 156 151 120 145 195 195 191 212 237 70 97 164 136 96 116 158 175 229 223 224 253 258 303 288 258 76 108 211 254 295 302 293 279 279 282 282 262 224 250 261 252 261 260 260 263 279 293 286 284
313 316 317 314 314 310 309 306 282 254 219 210 219 222 208 150 145 152 282 259 261 239 153 170 180 196 209 177 165 169 197 225 199 161 13 298 179 161 184 155 133 161 189 203 211 236 227 48 74 151 161 152 129 139 171 195 234 221 217 237 250 242 240 257 347 314 255 216 273 291 282 261 277 300 296 269 176 225 252 257 261 246 240 252 279 287 265 263
313 316 319 319 317 313 311 299 267 236 214 218 231 226 207 175 130 284 287 286 265 254 152 183 150 165 153 107 122 174 177 176 210 291 6 321 185 153 157 129 216 200 174 152 198 258 247 79 183 165 138 163 161 180 200 212 251 242 214 229 244 271 260 269 304 290 266 201 185 309 299 274 318 307 296 304 331 300 280 261 273 267 246 237 256 264 240 243
311 314 319 319 318 311 295 298 258 216 206 223 229 218 209 210 210 197 174 337 274 236 117 176 154 158 158 93 7 138 176 186 1 333 2 18 188 197 176 134 303 225 140 138 191 260 138 111 225 173 150 161 188 231 202 188 244 278 235 233 197 151 242 267 267 263 281 289 175 312 288 286 317 298 289 330 334 314 313 290 289 285 253 226 235 243 234 261
310 314 316 315 318 305 195 299 258 206 211 240 218 204 204 206 201 190 216 302 266 214 98 165 273 182 163 133 286 166 186 180 61 352 351 22 68 215 221 173 173 179 138 165 225 184 120 139 174 156 150 173 213 243 186 180 219 283 61 66 120 159 208 223 245 260 296 315 266 121 282 274 295 287 283 20 320 309 335 7 23 52 103 178 227 239 256 280
309 312 315 313 300 239 209 255 264 227 255 336 210 202 182 184 187 197 250 278 288 124 114 134 102 122 148 170 198 143 248 274 124 137 28 4 69 133 244 210 188 150 144 208 234 232 109 176 182 161 161 199 212 312 161 197 220 44 113 123 115 141 203 195 241 268 332 311 275 126 323 260 258 267 269 22 301 281 23 44 52 58 63 198 263 272 277 279
310 311 313 310 293 252 221 221 236 238 262 357 212 190 159 160 175 184 239 262 230 107 43 72 130 69 40 186 112 61 147 230 25 62 73 347 47 42 254 207 140 117 123 235 249 332 39 239 218 178 185 202 129 57 10 230 227 115 133 128 113 110 83 162 256 272 148 276 262 138 196 270 264 269 270 54 244 229 124 58 81 300 281 257 270 287 295 299
308 308 310 310 297 259 216 222 233 229 255 332 153 158 152 152 174 194 214 256 216 149 49 130 208 1 82 180 153 25 225 143 33 34 139 158 66 46 38 16 108 131 142 252 261 73 73 336 293 243 223 106 107 85 33 18 76 126 153 169 174 152 134 155 282 281 226 246 227 111 114 279 282 271 249 202 207 207 240 280 288 303 302 287 288 306 318 322
303 303 306 304 285 238 200 221 230 224 241 253 148 152 157 151 44 174 214 259 114 148 191 145 173 44 144 187 188 87 191 58 11 226 164 167 134 115 153 202 184 177 207 223 209 148 148 192 200 168 61 108 125 105 72 86 127 165 195 234 246 212 178 187 161 182 239 238 111 80 60 238 254 252 230 239 240 215 230 277 301 309 321 315 314 328 331 322
296 298 295 284 269 244 221 194 187 211 218 177 154 173 191 208 243 208 240 304 97 173 210 147 87 113 122 207 264 147 166 102 12 251 160 168 195 181 198 207 180 207 234 211 199 167 179 192 131 109 156 212 184 142 124 159 182 209 214 220 254 263 242 235 206 189 244 253 81 66 118 219 250 255 265 270 262 246 232 247 279 297 314 312 316 330 326 315
292 295 288 273 262 246 225 207 172 187 179 161 165 223 112 190 229 205 217 280 39 26 45 76 68 87 118 177 189 137 216 201 128 239 161 139 231 213 222 209 168 235 265 176 209 214 201 149 135 160 168 211 221 195 176 175 174 189 195 203 234 247 251 241 239 273 273 352 93 128 189 255 265 262 257 261 269 285 265 248 267 291 300 299 308 317 309 303
291 287 284 274 259 242 220 209 208 169 161 158 176 113 116 203 236 180 211 242 305 10 41 68 97 103 121 202 272 204 212 197 100 176 193 168 218 224 214 196 193 211 68 222 242 230 247 227 151 172 131 137 225 239 356 96 154 173 142 323 255 242 259 261 270 285 303 346 150 163 229 249 253 323 279 261 272 285 271 267 289 286 279 290 299 296 292 294
293 290 286 277 258 238 213 201 188 164 162 154 146 180 182 214 225 208 220 208 186 139 73 24 115 137 207 223 319 291 224 207 75 153 198 191 213 220 202 194 196 192 172 204 212 150 257 275 76 56 18 179 211 124 3 4 147 146 98 218 255 267 280 296 344 335 340 314 238 191 249 251 257 300 294 279 275 268 264 271 293 283 279 299 295 287 287 293
301 298 286 266 251 230 206 197 180 168 172 151 166 211 220 235 214 199 190 134 143 150 137 128 157 176 227 214 176 147 191 336 99 204 209 212 234 225 221 211 189 195 191 187 195 167 249 302 76 99 145 87 6 48 312 298 179 153 173 189 226 10 30 140 161 56 26 272 256 184 263 276 299 293 281 286 319 12 22 215 238 276 290 298 281 270 274 287
308 296 268 240 234 216 197 189 174 168 170 160 195 217 224 235 212 191 166 93 98 140 139 170 199 188 224 228 183 158 161 186 185 217 210 201 230 201 210 255 189 200 211 195 233 239 259 253 90 89 130 92 0 278 174 328 316 172 172 140 83 54 17 178 250 259 201 257 264 205 265 279 304 295 293 304 327 39 80 107 294 294 287 277 267 251 248 247
314 289 256 226 211 199 185 178 169 165 154 174 215 228 204 201 215 183 153 123 124 127 147 195 209 199 213 209 182 144 161 181 161 187 215 201 224 168 173 219 176 194 255 83 231 310 252 239 99 53 344 83 75 241 186 138 344 331 310 32 1 225 187 164 238 258 243 267 275 261 279 268 214 221 273 273 245 207 220 246 284 279 255 256 270 278 289 285
304 245 267 200 188 182 171 168 164 159 174 194 209 224 204 216 244 191 155 149 141 145 184 214 219 288 199 177 152 149 179 192 152 180 224 188 210 179 175 215 150 180 309 151 200 218 150 250 222 92 341 7 156 222 208 165 143 284 259 184 245 290 291 180 180 281 262 269 290 300 310 265 212 198 242 262 246 220 233 246 251 253 242 240 258 290 313 320
220 200 251 163 169 166 158 157 158 173 202 204 201 201 183 234 245 134 133 262 165 160 216 232 180 195 199 194 271 176 183 200 169 186 219 177 225 221 193 191 149 146 0 63 250 229 144 238 241 107 334 266 198 202 212 181 161 181 200 185 180 177 322 268 203 26 283 261 266 284 289 271 235 180 225 254 260 244 238 249 247 247 248 248 264 309 309 306
186 241 192 158 159 154 149 151 171 192 212 238 223 209 174 202 182 114 99 241 277 4 284 215 195 191 180 187 250 185 164 193 191 201 217 196 226 226 189 177 159 149 133 130 210 212 178 207 207 151 200 224 207 33 348 324 147 186 194 193 189 169 159 226 222 180 301 266 247 242 285 278 263 155 222 245 256 252 239 245 249 247 249 262 312 313 290 284
211 223 153 152 161 158 153 166 186 173 229 230 225 199 175 178 160 149 153 148 271 264 121 179 211 189 183 186 204 172 166 185 187 200 225 211 216 224 187 109 158 153 143 140 182 208 147 158 216 208 206 208 0 25 14 346 354 312 267 225 195 182 193 222 226 191 166 195 325 65 285 276 260 141 222 243 252 260 234 232 249 256 250 253 271 274 267 265
229 176 112 139 169 168 164 195 190 208 240 249 308 242 180 164 157 148 160 177 207 195 190 237 199 196 223 205 151 176 198 204 185 188 220 218 216 214 107 163 162 155 157 155 153 156 156 180 225 251 222 123 83 70 78 5 356 246 245 210 199 203 207 237 244 162 180 178 157 134 250 266 268 130 211 263 78 281 257 229 248 271 266 244 235 247 252 256
255 132 80 146 177 179 190 204 195 211 219 243 307 232 234 222 186 168 177 191 188 168 181 217 205 210 232 178 144 184 205 209 200 206 213 202 201 80 80 211 199 176 192 204 154 169 189 192 196 244 263 197 180 155 161 215 221 235 226 183 203 192 110 85 96 141 248 198 166 169 247 259 261 102 248 260 208 252 255 232 217 252 270 264 226 235 245 249
201 145 64 155 176 188 226 212 184 207 203 207 231 208 184 220 216 187 188 189 176 173 179 196 201 166 116 123 89 182 209 220 215 215 205 204 243 38 77 231 229 201 215 352 227 204 206 192 181 200 230 231 222 204 201 172 171 212 212 184 198 187 162 167 168 192 231 192 165 189 242 260 275 281 266 264 262 270 272 257 216 215 252 269 259 247 246 249
199 189 148 114 176 233 257 45 131 214 196 196 218 205 193 210 230 255 204 198 177 172 168 96 157 122 119 159 161 203 223 233 212 194 218 215 242 331 96 149 284 279 338 5 281 233 134 207 218 222 233 239 241 220 145 135 147 174 188 184 192 194 186 183 178 202 205 168 184 215 235 262 280 279 272 270 269 272 276 278 270 238 223 238 251 258 258 251
224 209 171 153 171 225 239 268 214 218 192 182 188 188 197 208 206 154 207 223 192 160 169 180 169 179 179 165 169 219 221 213 137 190 228 224 238 5 80 45 325 276 323 331 254 177 146 229 225 227 243 253 268 104 149 184 193 176 172 178 187 193 189 192 206 195 143 137 229 231 226 245 267 271 272 276 273 270 272 280 290 293 275 254 253 267 271 267
215 242 185 181 180 184 201 218 207 204 207 194 190 180 188 198 194 189 200 223 341 198 196 203 206 206 191 160 163 200 181 184 224 206 202 213 207 186 153 76 256 184 173 210 212 171 216 245 217 215 244 257 267 171 168 213 250 184 181 184 184 189 193 202 215 198 159 199 241 242 227 232 248 256 263 267 268 271 278 287 296 294 287 290 298 292 284 280
207 273 248 247 262 189 191 194 187 196 205 199 206 195 182 195 200 198 170 122 201 228 204 215 224 204 185 168 181 198 179 192 221 212 187 196 199 187 189 200 184 167 188 194 187 214 220 223 153 178 255 265 263 207 190 217 238 224 218 208 192 194 198 205 218 213 203 227 251 259 257 253 251 252 257 262 265 272 289 296 291 281 280 292 298 291 286 283
186 256 196 191 279 198 196 176 163 188 201 198 211 204 186 210 208 202 162 162 191 201 178 223 230 192 173 189 196 214 218 209 213 209 176 177 190 200 213 203 144 153 204 194 181 238 231 214 107 107 266 270 261 183 186 218 233 231 229 227 215 206 203 211 225 223 220 239 251 258 269 269 263 258 255 260 271 286 289 283 279 278 284 294 284 275 275 278
219 353 89 203 232 168 175 177 150 180 197 192 200 189 198 226 215 203 214 202 199 181 173 210 222 171 163 198 198 224 233 223 217 208 172 175 189 193 204 184 139 151 181 190 171 174 205 219 90 108 251 266 260 130 151 163 242 249 247 239 225 210 203 211 217 212 211 226 240 256 266 260 258 259 255 257 266 273 270 268 272 279 280 271 267 266 267 270
216 272 147 221 256 185 172 157 156 191 202 184 191 192 205 222 210 194 212 226 213 208 191 196 196 143 159 204 208 224 234 223 199 182 153 162 161 143 186 178 148 149 162 173 167 157 190 200 138 157 233 260 341 95 122 108 279 247 231 224 215 207 212 220 222 219 217 218 222 232 236 241 251 261 269 270 259 252 255 259 267 279 279 262 254 258 264 267